Flag for Morocco Weather past 2 weeks in Casablanca, Morocco

Now
57 °F

Passing clouds.


Feels Like: 55 °F
Forecast: N/A
Wind: 12 mph from Northeast

Location: Casablanca Airport

Current Time: Mar 3, 2015 at 9:12:01 PM

Latest Report: Mar 3, 2015 at 8:00 PM


Visibility: 4 mi

Pressure: 30.27 "Hg

Humidity: 88%

Dew point: 54 °F

Location of CasablancaLocation

Historic Weather in Casablanca — Graph

°F

Casablanca temperature yesterday

Maximum temperature yesterday: 63 °F (at 1:00 PM)
Minimum temperature yesterday: 55 °F (at 6:00 AM)
Average temperature yesterday: 59 °F

Past Weeks' High & Low Weather Summary

 TemperatureHumidityPressure
High66 °F (Mar 1, 2:00 PM)100% (Feb 21, 8:00 PM)30.48 "Hg (Feb 21, 8:00 PM)
Low46 °F (Feb 23, 1:00 PM)51% (Feb 17, 10:00 AM)29.95 "Hg (Feb 21, 4:00 PM)
Average57 °F78%30.23 "Hg
* Reported Feb 16 7:00 PM — Mar 3 7:00 PM, Casablanca, Weather by CustomWeather, © 2015

Note: Actual official high and low records may vary slightly from our data, if they occured in-between our weather recording intervals... More about our weather records

Advertising

Casablanca weather history for previous 24 hours

 ConditionsComfort  
Time TempWeatherWind HumidityBarometerVisibility
7:00 PM
Tue, Mar 3
57 °FPassing clouds.10 mph88%30.27 "Hg4 mi
6:00 PM59 °FPassing clouds.10 mph82%30.24 "Hg4 mi
5:00 PM59 °FPartly sunny.12 mph88%30.24 "Hg5 mi
4:00 PM61 °FPartly sunny.12 mph83%30.24 "Hg5 mi
3:00 PM63 °FScattered clouds.12 mph83%30.24 "Hg5 mi
2:00 PM63 °FOvercast.9 mph83%30.27 "Hg4 mi
1:00 PM63 °FOvercast.9 mph83%30.27 "Hg4 mi
12:00 PM63 °FOvercast.9 mph83%30.27 "Hg4 mi
11:00 AM61 °FOvercast.9 mph83%30.30 "Hg4 mi
10:00 AM59 °FOvercast.9 mph88%30.30 "Hg4 mi
9:00 AM55 °FFog.5 mph100%30.27 "Hg1 mi
8:00 AM55 °FFog.5 mph100%30.27 "Hg1 mi
7:00 AM55 °FDrizzle. Partly sunny.7 mph100%30.24 "Hg3 mi
6:00 AM55 °FPartly sunny.8 mph100%30.24 "Hg3 mi
5:00 AM55 °FPassing clouds.6 mph100%30.24 "Hg3 mi
12:00 AM57 °FClear.2 mph82%30.24 "Hg5 mi
11:00 PM
Mon, Mar 2
57 °FPassing clouds.3 mph88%30.27 "Hg5 mi
10:00 PM59 °FPassing clouds.6 mph88%30.24 "Hg5 mi
9:00 PM59 °FPassing clouds.15 mph88%30.24 "HgN/A
Weather by CustomWeather, © 2015

See weather overviewHow to use our weather pages